Weather History for Metropolis, IL

Change the Weather History Date:

Thursday, February 27, 2014

  Actual Average (KPAH) Record (KPAH)
Temperature  
Mean Temperature 28 °F 43 °F  
Max Temperature 35 °F 53 °F 77 °F (1981)
Min Temperature 22 °F 33 °F 14 °F (1963)
Degree Days  
Heating Degree Days 36 22  
Month to date heating degree days 700  
Since 1 July heating degree days 3273  
Cooling Degree Days 0 0  
Month to date cooling degree days 0  
Year to date cooling degree days 0  
Moisture  
Dew Point 4 °F    
Average Humidity 38    
Maximum Humidity 62    
Minimum Humidity 12    
Precipitation  
Precipitation 0.00 in 0.13 in 1.34 in (1962)
Month to date precipitation 3.78  
Year to date precipitation 7.46  
Snow  
Snow 0.00 in 0.10 in 3.20 in (1984)
Month to date snowfall 3.1  
Since 1 July snowfall 8.4  
Snow Depth -    
Sea Level Pressure  
Sea Level Pressure 30.06 in    
Wind  
Wind Speed 7 mph (NW)    
Max Wind Speed 15 mph    
Max Gust Speed 20 mph    
Visibility 10 miles    
Events      
T = Trace of Precipitation, MM = Missing Value Source: NWS Daily Summary

Daily Weather History Graph

Daily Weather History Graph

Search for Another Location

Airport:

Trip Planner

Search our weather history database for the weather conditions in past years. The results will help you decide how hot, cold, wet, or windy it might be!

Date:

Astronomy

Feb. 27, 2014 Rise Set
Actual Time 6:28 AM CST 5:47 PM CST
Civil Twilight 6:02 AM CST 6:13 PM CST
Nautical Twilight 5:32 AM CST 6:43 PM CST
Astronomical Twilight 5:02 AM CST 7:13 PM CST
Moon 4:59 AM CST (2/27) 4:13 PM CST (2/27)
Length of Visible Light 12h 10m
Length of Day
11h 18m
Waning Crescent, 4% of the Moon is Illuminated
Feb 27
Waning Crescent
Mar 1
New
Mar 8
First Quarter
Mar 16
Full
Mar 23
Last Quarter

Hourly Weather History & Observations

Time (CST) Temp. Windchill Dew Point Humidity Pressure Visibility Wind Dir Wind Speed Gust Speed Precip Events Conditions
12:15 AM 22.3 °F 16.1 °F 8.4 °F 55% 30.01 in 10.0 mi SW 4.6 mph - N/A   Clear
12:35 AM 22.5 °F 15.1 °F 9.5 °F 58% 30.01 in 10.0 mi SW 5.8 mph - N/A   Clear
12:55 AM 22.3 °F 14.9 °F 10.4 °F 60% 30.01 in 10.0 mi WSW 5.8 mph - N/A   Clear
1:15 AM 22.8 °F 15.5 °F 11.1 °F 61% 30.01 in 10.0 mi WSW 5.8 mph - N/A   Clear
1:35 AM 23.2 °F 16.0 °F 11.7 °F 61% 30.01 in 10.0 mi WSW 5.8 mph - N/A   Clear
1:55 AM 23.2 °F 16.0 °F 11.8 °F 62% 30.00 in 10.0 mi WSW 5.8 mph - N/A   Clear
2:15 AM 23.5 °F 17.6 °F 11.1 °F 59% 29.99 in 10.0 mi WSW 4.6 mph - N/A   Clear
2:35 AM 23.5 °F 16.4 °F 10.8 °F 58% 29.99 in 10.0 mi WSW 5.8 mph - N/A   Clear
2:55 AM 23.0 °F 15.8 °F 10.8 °F 60% 29.98 in 10.0 mi WSW 5.8 mph - N/A   Clear
3:15 AM 23.5 °F 15.4 °F 10.4 °F 57% 29.98 in 10.0 mi WSW 6.9 mph - N/A   Clear
3:35 AM 23.9 °F 15.8 °F 9.5 °F 54% 29.98 in 10.0 mi WSW 6.9 mph - N/A   Clear
3:55 AM 24.3 °F 16.3 °F 8.6 °F 51% 29.97 in 10.0 mi WSW 6.9 mph - N/A   Clear
4:15 AM 23.9 °F 16.8 °F 8.6 °F 52% 29.98 in 10.0 mi WSW 5.8 mph - N/A   Clear
4:35 AM 23.9 °F 16.8 °F 8.6 °F 52% 29.98 in 10.0 mi SW 5.8 mph - N/A   Clear
4:55 AM 23.9 °F 15.8 °F 7.9 °F 51% 29.99 in 10.0 mi SW 6.9 mph - N/A   Clear
5:15 AM 23.9 °F 15.8 °F 7.5 °F 50% 29.99 in 10.0 mi WSW 6.9 mph - N/A   Clear
5:35 AM 23.9 °F 15.8 °F 7.7 °F 50% 29.99 in 10.0 mi WSW 6.9 mph - N/A   Clear
5:55 AM 24.3 °F 16.3 °F 7.5 °F 49% 30.00 in 10.0 mi WSW 6.9 mph - N/A   Clear
6:15 AM 23.9 °F 15.8 °F 7.7 °F 50% 30.01 in 10.0 mi WSW 6.9 mph - N/A   Clear
6:35 AM 23.7 °F 15.6 °F 8.4 °F 52% 30.01 in 10.0 mi WSW 6.9 mph - N/A   Clear
6:55 AM 23.9 °F 15.8 °F 8.6 °F 52% 30.03 in 10.0 mi WSW 6.9 mph - N/A   Clear
7:15 AM 24.8 °F 17.9 °F 8.8 °F 51% 30.03 in 10.0 mi WSW 5.8 mph - N/A   Clear
7:35 AM 26.1 °F 18.4 °F 9.3 °F 49% 30.05 in 10.0 mi West 6.9 mph - N/A   Clear
7:55 AM 27.5 °F 21.1 °F 10.6 °F 49% 30.06 in 10.0 mi West 5.8 mph - N/A   Clear
8:15 AM 29.7 °F 20.7 °F 10.4 °F 45% 30.06 in 10.0 mi WNW 10.4 mph - N/A   Clear
8:35 AM 30.6 °F 23.1 °F 10.4 °F 43% 30.07 in 10.0 mi NW 8.1 mph 16.1 mph N/A   Clear
8:55 AM 30.7 °F 20.0 °F 10.6 °F 43% 30.07 in 10.0 mi NNW 15.0 mph 19.6 mph N/A   Clear
9:15 AM 31.3 °F 22.1 °F 11.1 °F 43% 30.08 in 10.0 mi WNW 11.5 mph 17.3 mph N/A   Clear
9:35 AM 31.8 °F 22.3 °F 11.1 °F 42% 30.09 in 10.0 mi NNW 12.7 mph 17.3 mph N/A   Clear
9:55 AM 32.0 °F 22.5 °F 12.0 °F 44% 30.09 in 10.0 mi NNW 12.7 mph 19.6 mph N/A   Clear
10:15 AM 32.9 °F 24.1 °F 12.4 °F 43% 30.09 in 10.0 mi NW 11.5 mph - N/A   Clear
10:35 AM 33.6 °F 27.5 °F 9.9 °F 37% 30.10 in 10.0 mi NNW 6.9 mph 16.1 mph N/A   Clear
10:55 AM 33.6 °F 25.0 °F 8.8 °F 36% 30.10 in 10.0 mi NW 11.5 mph - N/A   Clear
11:15 AM 33.8 °F 27.0 °F 7.5 °F 33% 30.11 in 10.0 mi NNW 8.1 mph 18.4 mph N/A   Clear
11:35 AM 35.2 °F 26.6 °F 7.7 °F 32% 30.11 in 10.0 mi NNW 12.7 mph - N/A   Clear
11:55 AM 35.1 °F 26.9 °F 4.6 °F 28% 30.10 in 10.0 mi NW 11.5 mph 18.4 mph N/A   Clear
12:15 PM 34.9 °F 28.3 °F 3.7 °F 27% 30.09 in 10.0 mi NW 8.1 mph 19.6 mph N/A   Clear
12:35 PM 34.5 °F 28.6 °F 2.7 °F 26% 30.09 in 10.0 mi North 6.9 mph - N/A   Clear
12:55 PM 35.1 °F 28.6 °F 1.4 °F 24% 30.08 in 10.0 mi NNW 8.1 mph 16.1 mph N/A   Clear
1:15 PM 35.2 °F 27.1 °F -0.6 °F 22% 30.08 in 10.0 mi NW 11.5 mph 18.4 mph N/A   Clear
1:35 PM 35.2 °F 27.1 °F -4.7 °F 18% 30.08 in 10.0 mi NNW 11.5 mph - N/A   Clear
1:55 PM 35.4 °F 28.4 °F -4.0 °F 19% 30.08 in 10.0 mi NW 9.2 mph 17.3 mph N/A   Clear
2:15 PM 35.4 °F 26.4 °F -6.2 °F 17% 30.08 in 10.0 mi NW 13.8 mph 18.4 mph N/A   Clear
2:35 PM 35.2 °F 27.6 °F -11.6 °F 13% 30.07 in 10.0 mi North 10.4 mph - N/A   Clear
2:55 PM 34.7 °F 28.8 °F -13.0 °F 12% 30.07 in 10.0 mi NNE 6.9 mph 11.5 mph N/A   Clear
3:15 PM 35.1 °F 28.6 °F -13.0 °F 12% 30.07 in 10.0 mi NW 8.1 mph - N/A   Clear
3:35 PM 35.2 °F 30.3 °F -9.8 °F 14% 30.07 in 10.0 mi North 5.8 mph - N/A   Clear
3:55 PM 35.1 °F 29.3 °F -7.2 °F 16% 30.08 in 10.0 mi NW 6.9 mph - N/A   Clear
4:15 PM 34.9 °F 28.3 °F -6.0 °F 17% 30.08 in 10.0 mi NW 8.1 mph - N/A   Clear
4:35 PM 34.0 °F 27.2 °F -7.4 °F 17% 30.08 in 10.0 mi NNW 8.1 mph - N/A   Clear
4:55 PM 33.4 °F 27.3 °F -7.6 °F 17% 30.08 in 10.0 mi NNW 6.9 mph - N/A   Clear
5:15 PM 32.9 °F 25.9 °F -8.0 °F 17% 30.07 in 10.0 mi NNW 8.1 mph - N/A   Clear
5:35 PM 32.0 °F 26.4 °F -6.2 °F 19% 30.08 in 10.0 mi North 5.8 mph - N/A   Clear
5:55 PM 30.9 °F 25.2 °F -5.6 °F 21% 30.08 in 10.0 mi North 5.8 mph - N/A   Clear
6:15 PM 30.0 °F 25.2 °F -5.3 °F 22% 30.08 in 10.0 mi North 4.6 mph - N/A   Clear
6:35 PM 28.9 °F 25.2 °F -2.2 °F 26% 30.09 in 10.0 mi North 3.5 mph - N/A   Clear
6:55 PM 28.2 °F 24.4 °F -2.4 °F 27% 30.09 in 10.0 mi NNE 3.5 mph - N/A   Clear
7:15 PM 28.0 °F 24.2 °F -1.5 °F 28% 30.10 in 10.0 mi North 3.5 mph - N/A   Clear
7:35 PM 27.3 °F 20.9 °F -0.4 °F 30% 30.11 in 10.0 mi North 5.8 mph - N/A   Clear
7:55 PM 26.6 °F 22.6 °F 1.0 °F 33% 30.11 in 10.0 mi NNE 3.5 mph - N/A   Clear
8:15 PM 26.2 °F 22.1 °F 2.1 °F 36% 30.12 in 10.0 mi NE 3.5 mph - N/A   Clear
8:35 PM 25.5 °F 21.3 °F 2.7 °F 37% 30.12 in 10.0 mi ENE 3.5 mph - N/A   Clear
8:55 PM 25.7 °F - 1.9 °F 36% 30.12 in 10.0 mi Calm Calm - N/A   Clear
9:15 PM 25.3 °F 19.7 °F 1.9 °F 37% 30.13 in 10.0 mi NE 4.6 mph - N/A   Clear
9:35 PM 24.8 °F 19.1 °F 2.5 °F 38% 30.12 in 10.0 mi NE 4.6 mph - N/A   Clear
9:55 PM 24.3 °F 19.9 °F 3.4 °F 41% 30.12 in 10.0 mi ENE 3.5 mph - N/A   Clear
10:15 PM 24.3 °F 19.9 °F 3.0 °F 40% 30.12 in 10.0 mi NE 3.5 mph - N/A   Clear
10:35 PM 23.7 °F - 3.7 °F 42% 30.13 in 10.0 mi Calm Calm - N/A   Clear
10:55 PM 23.2 °F - 5.0 °F 46% 30.12 in 10.0 mi Calm Calm - N/A   Clear
11:15 PM 22.5 °F - 6.4 °F 50% 30.13 in 10.0 mi Calm Calm - N/A   Clear
11:35 PM 22.3 °F - 5.5 °F 49% 30.12 in 10.0 mi Calm Calm - N/A   Clear
11:55 PM 22.1 °F - 5.2 °F 48% 30.12 in 10.0 mi Calm Calm - N/A   Clear